• In Moldova, Republic
  • List of Countries
  • For 7 days
  • Water Temperature
  • Satellite Maps
  • Weather Map
  • Weather Widgets
  • user-avatar
    Login

    Hourly Weather Yulara

    Today, 29 April, Saturday

    Time Temperature Precipitation Wind Pressure Humidity
    00:00 +15°C° 0 mm 4 mps 723 mmHg 36%
    01:00 +15°C° 0 mm 4 mps 723 mmHg 38%
    02:00 +14°C° 0 mm 4 mps 722 mmHg 40%
    03:00 +14°C° 0 mm 4 mps 722 mmHg 42%
    04:00 +14°C° 0 mm 4 mps 722 mmHg 44%
    05:00 +13°C° 0 mm 4 mps 722 mmHg 46%
    06:00 +13°C° 0 mm 4 mps 722 mmHg 48%
    07:00 +14°C° 0 mm 4 mps 723 mmHg 45%
    08:00 +14°C° 0 mm 5 mps 723 mmHg 43%
    09:00 +15°C° 0 mm 6 mps 723 mmHg 41%
    10:00 +17°C° 0 mm 6 mps 723 mmHg 37%
    11:00 +19°C° 0 mm 6 mps 722 mmHg 33%
    12:00 +20°C° 0 mm 6 mps 722 mmHg 30%
    13:00 +21°C° 0 mm 6 mps 722 mmHg 28%
    14:00 +22°C° 0 mm 6 mps 721 mmHg 26%
    15:00 +22°C° 0 mm 6 mps 721 mmHg 24%
    16:00 +22°C° 0 mm 5 mps 721 mmHg 26%
    17:00 +21°C° 0 mm 5 mps 721 mmHg 27%
    18:00 +20°C° 0 mm 4 mps 721 mmHg 29%
    19:00 +20°C° 0 mm 4 mps 721 mmHg 31%
    20:00 +19°C° 0 mm 4 mps 721 mmHg 32%
    21:00 +18°C° 0 mm 4 mps 722 mmHg 34%
    22:00 +18°C° 0 mm 4 mps 721 mmHg 35%
    23:00 +17°C° 0 mm 4 mps 721 mmHg 37%

    Tomorrow, 30 April, Sunday

    Time Temperature Precipitation Wind Pressure Humidity
    00:00 +17°C° 0 mm 4 mps 721 mmHg 38%
    01:00 +15°C° 0 mm 4 mps 721 mmHg 40%
    02:00 +15°C° 0 mm 4 mps 721 mmHg 41%
    03:00 +16°C° 0 mm 3 mps 720 mmHg 43%
    04:00 +14°C° 0 mm 3 mps 720 mmHg 44%
    05:00 +14°C° 0 mm 3 mps 720 mmHg 45%
    06:00 +13°C° 0 mm 3 mps 720 mmHg 46%
    07:00 +14°C° 0 mm 3 mps 721 mmHg 44%
    08:00 +15°C° 0 mm 4 mps 721 mmHg 41%
    09:00 +17°C° 0 mm 4 mps 721 mmHg 38%
    10:00 +19°C° 0 mm 4 mps 721 mmHg 35%
    11:00 +20°C° 0 mm 3 mps 721 mmHg 32%
    12:00 +21°C° 0 mm 3 mps 720 mmHg 29%
    13:00 +23°C° 0 mm 2 mps 720 mmHg 28%
    14:00 +23°C° 0 mm 2 mps 719 mmHg 26%
    15:00 +24°C° 0 mm 1 mps 719 mmHg 24%
    16:00 +23°C° 0 mm 1 mps 719 mmHg 26%
    17:00 +23°C° 0 mm 1 mps 719 mmHg 27%
    18:00 +22°C° 0 mm 1 mps 719 mmHg 28%
    19:00 +20°C° 0 mm 2 mps 720 mmHg 29%
    20:00 +20°C° 0 mm 2 mps 720 mmHg 31%
    21:00 +19°C° 0 mm 3 mps 720 mmHg 32%
    22:00 +19°C° 0 mm 3 mps 720 mmHg 33%
    23:00 +18°C° 0 mm 2 mps 720 mmHg 35%

    Day after tomorrow, 1 May, Monday

    Time Temperature Precipitation Wind Pressure Humidity
    00:00 +18°C° 0 mm 2 mps 720 mmHg 36%
    01:00 +17°C° 0 mm 2 mps 720 mmHg 38%
    02:00 +17°C° 0 mm 2 mps 720 mmHg 39%
    03:00 +16°C° 0 mm 2 mps 719 mmHg 41%
    04:00 +16°C° 0 mm 2 mps 719 mmHg 42%
    05:00 +16°C° 0 mm 2 mps 720 mmHg 43%
    06:00 +15°C° 0 mm 2 mps 720 mmHg 45%
    07:00 +16°C° 0 mm 2 mps 720 mmHg 41%
    08:00 +18°C° 0 mm 2 mps 721 mmHg 38%
    09:00 +19°C° 0 mm 2 mps 721 mmHg 35%
    10:00 +20°C° 0 mm 2 mps 721 mmHg 32%
    11:00 +21°C° 0 mm 2 mps 721 mmHg 29%
    12:00 +24°C° 0 mm 2 mps 721 mmHg 26%
    13:00 +24°C° 0 mm 3 mps 720 mmHg 25%
    14:00 +25°C° 0 mm 3 mps 720 mmHg 24%
    15:00 +26°C° 0 mm 3 mps 719 mmHg 22%
    16:00 +25°C° 0 mm 3 mps 719 mmHg 23%
    17:00 +24°C° 0 mm 3 mps 720 mmHg 25%
    18:00 +22°C° 0 mm 3 mps 720 mmHg 26%
    19:00 +22°C° 0 mm 3 mps 720 mmHg 28%
    20:00 +21°C° 0 mm 3 mps 721 mmHg 29%
    21:00 +20°C° 0 mm 3 mps 721 mmHg 31%
    22:00 +20°C° 0 mm 3 mps 721 mmHg 32%
    23:00 +19°C° 0 mm 3 mps 721 mmHg 34%

    2 May, Tuesday

    Time Temperature Precipitation Wind Pressure Humidity
    00:00 +19°C° 0 mm 3 mps 721 mmHg 36%
    01:00 +18°C° 0 mm 3 mps 721 mmHg 37%
    02:00 +18°C° 0 mm 4 mps 721 mmHg 39%
    03:00 +17°C° 0 mm 4 mps 720 mmHg 41%
    04:00 +17°C° 0 mm 4 mps 721 mmHg 43%
    05:00 +15°C° 0 mm 4 mps 721 mmHg 45%
    06:00 +15°C° 0 mm 4 mps 721 mmHg 47%
    07:00 +16°C° 0 mm 5 mps 722 mmHg 46%
    08:00 +17°C° 0 mm 6 mps 722 mmHg 44%
    09:00 +19°C° 0 mm 6 mps 723 mmHg 43%
    10:00 +20°C° 0 mm 6 mps 723 mmHg 40%
    11:00 +21°C° 0 mm 6 mps 722 mmHg 37%
    12:00 +22°C° 0 mm 6 mps 722 mmHg 33%
    13:00 +23°C° 0 mm 6 mps 722 mmHg 32%
    14:00 +23°C° 0 mm 5 mps 721 mmHg 31%
    15:00 +25°C° 0 mm 5 mps 721 mmHg 30%
    16:00 +23°C° 0 mm 5 mps 721 mmHg 33%
    17:00 +22°C° 0 mm 5 mps 721 mmHg 36%
    18:00 +21°C° 0 mm 5 mps 721 mmHg 38%
    19:00 +20°C° 0 mm 5 mps 722 mmHg 43%
    20:00 +19°C° 0 mm 5 mps 722 mmHg 47%
    21:00 +19°C° 0 mm 6 mps 723 mmHg 51%
    22:00 +17°C° 0 mm 5 mps 723 mmHg 54%
    23:00 +17°C° 0 mm 5 mps 723 mmHg 57%

    3 May, Wednesday

    Time Temperature Precipitation Wind Pressure Humidity
    00:00 +16°C° 0 mm 5 mps 723 mmHg 60%
    01:00 +15°C° 0 mm 5 mps 722 mmHg 62%
    02:00 +15°C° 0 mm 5 mps 722 mmHg 63%
    03:00 +14°C° 0 mm 5 mps 722 mmHg 65%
    04:00 +14°C° 0 mm 5 mps 722 mmHg 65%
    05:00 +14°C° 0 mm 5 mps 723 mmHg 65%
    06:00 +13°C° 0 mm 5 mps 723 mmHg 65%
    07:00 +14°C° 0 mm 5 mps 723 mmHg 62%
    08:00 +15°C° 0 mm 6 mps 724 mmHg 58%
    09:00 +15°C° 0 mm 6 mps 724 mmHg 54%
    10:00 +17°C° 0 mm 6 mps 724 mmHg 51%
    11:00 +19°C° 0 mm 5 mps 723 mmHg 47%
    12:00 +20°C° 0 mm 5 mps 723 mmHg 43%
    13:00 +21°C° 0 mm 4 mps 722 mmHg 40%
    14:00 +21°C° 0 mm 4 mps 722 mmHg 37%
    15:00 +22°C° 0 mm 4 mps 721 mmHg 34%
    16:00 +21°C° 0 mm 4 mps 722 mmHg 35%
    17:00 +21°C° 0 mm 4 mps 722 mmHg 36%
    18:00 +20°C° 0 mm 4 mps 722 mmHg 37%
    19:00 +19°C° 0 mm 4 mps 722 mmHg 38%
    20:00 +19°C° 0 mm 4 mps 723 mmHg 39%
    21:00 +17°C° 0 mm 5 mps 723 mmHg 41%
    22:00 +17°C° 0 mm 5 mps 723 mmHg 42%
    23:00 +17°C° 0 mm 4 mps 723 mmHg 43%

    4 May, Thursday

    Time Temperature Precipitation Wind Pressure Humidity
    00:00 +15°C° 0 mm 4 mps 723 mmHg 44%
    01:00 +15°C° 0 mm 4 mps 723 mmHg 46%
    02:00 +15°C° 0 mm 4 mps 723 mmHg 49%
    03:00 +14°C° 0 mm 4 mps 722 mmHg 51%
    04:00 +14°C° 0 mm 4 mps 722 mmHg 54%
    05:00 +13°C° 0 mm 4 mps 723 mmHg 57%
    06:00 +13°C° 0 mm 4 mps 723 mmHg 59%
    07:00 +14°C° 0 mm 5 mps 723 mmHg 57%
    08:00 +15°C° 0 mm 5 mps 723 mmHg 54%
    09:00 +16°C° 0 mm 6 mps 723 mmHg 51%
    10:00 +17°C° 0 mm 6 mps 723 mmHg 47%
    11:00 +20°C° 0 mm 5 mps 723 mmHg 42%
    12:00 +21°C° 0 mm 5 mps 722 mmHg 38%
    13:00 +22°C° 0 mm 4 mps 722 mmHg 36%
    14:00 +22°C° 0 mm 4 mps 721 mmHg 33%
    15:00 +24°C° 0 mm 3 mps 720 mmHg 31%
    16:00 +22°C° 0 mm 3 mps 721 mmHg 32%
    17:00 +21°C° 0 mm 3 mps 721 mmHg 33%
    18:00 +21°C° 0 mm 3 mps 721 mmHg 34%
    19:00 +20°C° 0 mm 3 mps 721 mmHg 35%
    20:00 +19°C° 0 mm 3 mps 722 mmHg 36%
    21:00 +19°C° 0 mm 4 mps 722 mmHg 38%
    22:00 +18°C° 0 mm 4 mps 722 mmHg 38%
    23:00 +18°C° 0 mm 4 mps 722 mmHg 39%
    Show more